When you browse on this site, cookies collect data to enhance your experience and personalize the content and advertising you see.
Visit our Privacy Policy to learn more. By continuing to use the site, you agree to this use of cookies and data.
  • In Romania
  • List of Countries
  • For 7 days
  • Water Temperature
  • Satellite Maps
  • Weather Map
  • Weather Widgets
  • user-avatar
    Login

    Hourly Weather Konstantyna

    Today, 18 June, Tuesday

    Time Temperature Precipitation Wind Pressure Humidity
    00:00 +18°C° 0 mm 0 mps 710 mmHg 70%
    01:00 +18°C° 0 mm 0 mps 710 mmHg 70%
    02:00 +18°C° 0 mm 0 mps 709 mmHg 70%
    03:00 +18°C° 0 mm 0 mps 709 mmHg 70%
    04:00 +19°C° 0 mm 0 mps 709 mmHg 67%
    05:00 +20°C° 0 mm 0 mps 710 mmHg 63%
    06:00 +23°C° 0 mm 1 mps 710 mmHg 60%
    07:00 +25°C° 0 mm 1 mps 711 mmHg 53%
    08:00 +27°C° 0 mm 1 mps 711 mmHg 46%
    09:00 +29°C° 0 mm 1 mps 711 mmHg 39%
    10:00 +31°C° 0 mm 1 mps 711 mmHg 36%
    11:00 +32°C° 0 mm 2 mps 711 mmHg 33%
    12:00 +34°C° 0 mm 3 mps 711 mmHg 30%
    13:00 +34°C° 0 mm 4 mps 711 mmHg 30%
    14:00 +35°C° 0 mm 4 mps 711 mmHg 30%
    15:00 +35°C° 0 mm 5 mps 710 mmHg 31%
    16:00 +33°C° 0 mm 4 mps 710 mmHg 34%
    17:00 +32°C° 0 mm 4 mps 710 mmHg 38%
    18:00 +29°C° 0 mm 3 mps 710 mmHg 41%
    19:00 +28°C° 0 mm 2 mps 710 mmHg 44%
    20:00 +27°C° 0 mm 2 mps 710 mmHg 46%
    21:00 +25°C° 0 mm 1 mps 710 mmHg 48%
    22:00 +25°C° 0 mm 1 mps 710 mmHg 49%
    23:00 +25°C° 0 mm 1 mps 710 mmHg 49%

    Tomorrow, 19 June, Wednesday

    Time Temperature Precipitation Wind Pressure Humidity
    00:00 +25°C° 0 mm 1 mps 710 mmHg 49%
    01:00 +24°C° 0 mm 1 mps 710 mmHg 49%
    02:00 +24°C° 0 mm 1 mps 709 mmHg 48%
    03:00 +24°C° 0 mm 1 mps 709 mmHg 48%
    04:00 +25°C° 0 mm 1 mps 709 mmHg 45%
    05:00 +26°C° 0 mm 1 mps 710 mmHg 43%
    06:00 +28°C° 0 mm 1 mps 710 mmHg 40%
    07:00 +30°C° 0 mm 3 mps 710 mmHg 34%
    08:00 +34°C° 0 mm 4 mps 711 mmHg 28%
    09:00 +36°C° 0 mm 5 mps 711 mmHg 22%
    10:00 +37°C° 0 mm 5 mps 712 mmHg 21%
    11:00 +39°C° 0 mm 5 mps 712 mmHg 20%
    12:00 +40°C° 0 mm 5 mps 712 mmHg 19%
    13:00 +39°C° 0 mm 5 mps 711 mmHg 22%
    14:00 +37°C° 0 mm 5 mps 711 mmHg 25%
    15:00 +37°C° 0 mm 5 mps 710 mmHg 28%
    16:00 +35°C° 0 mm 4 mps 710 mmHg 31%
    17:00 +33°C° 0 mm 3 mps 710 mmHg 35%
    18:00 +31°C° 0 mm 2 mps 710 mmHg 39%
    19:00 +30°C° 0 mm 2 mps 710 mmHg 41%
    20:00 +29°C° 0 mm 1 mps 710 mmHg 43%
    21:00 +28°C° 0 mm 1 mps 710 mmHg 45%
    22:00 +27°C° 0 mm 1 mps 710 mmHg 45%
    23:00 +27°C° 0 mm 1 mps 710 mmHg 46%

    Day after tomorrow, 20 June, Thursday

    Time Temperature Precipitation Wind Pressure Humidity
    00:00 +27°C° 0 mm 1 mps 709 mmHg 46%
    01:00 +27°C° 0 mm 1 mps 709 mmHg 45%
    02:00 +28°C° 0 mm 1 mps 709 mmHg 43%
    03:00 +28°C° 0 mm 1 mps 708 mmHg 41%
    04:00 +28°C° 0 mm 1 mps 709 mmHg 40%
    05:00 +29°C° 0 mm 1 mps 709 mmHg 39%
    06:00 +30°C° 0 mm 1 mps 709 mmHg 38%
    07:00 +32°C° 0 mm 2 mps 710 mmHg 32%
    08:00 +35°C° 0 mm 2 mps 710 mmHg 26%
    09:00 +38°C° 0 mm 3 mps 711 mmHg 20%
    10:00 +40°C° 0 mm 4 mps 711 mmHg 17%
    11:00 +41°C° 0 mm 5 mps 711 mmHg 15%
    12:00 +42°C° 0 mm 6 mps 711 mmHg 12%
    13:00 +42°C° 0 mm 6 mps 711 mmHg 14%
    14:00 +41°C° 0 mm 6 mps 710 mmHg 15%
    15:00 +41°C° 0 mm 6 mps 710 mmHg 16%
    16:00 +39°C° 0 mm 5 mps 710 mmHg 23%
    17:00 +36°C° 0 mm 4 mps 710 mmHg 29%
    18:00 +34°C° 0 mm 3 mps 710 mmHg 36%
    19:00 +31°C° 0 mm 2 mps 710 mmHg 39%
    20:00 +30°C° 0 mm 2 mps 710 mmHg 42%
    21:00 +28°C° 0 mm 2 mps 709 mmHg 46%
    22:00 +28°C° 0 mm 2 mps 709 mmHg 45%
    23:00 +28°C° 0 mm 2 mps 709 mmHg 44%

    21 June, Friday

    Time Temperature Precipitation Wind Pressure Humidity
    00:00 +27°C° 0 mm 2 mps 709 mmHg 44%
    01:00 +27°C° 0 mm 2 mps 709 mmHg 42%
    02:00 +27°C° 0 mm 2 mps 708 mmHg 41%
    03:00 +27°C° 0 mm 2 mps 708 mmHg 40%
    04:00 +27°C° 0 mm 2 mps 709 mmHg 39%
    05:00 +28°C° 0 mm 1 mps 709 mmHg 39%
    06:00 +29°C° 0 mm 1 mps 709 mmHg 39%
    07:00 +32°C° 0 mm 2 mps 710 mmHg 32%
    08:00 +36°C° 0 mm 4 mps 710 mmHg 26%
    09:00 +39°C° 0 mm 5 mps 711 mmHg 20%
    10:00 +41°C° 0 mm 6 mps 711 mmHg 17%
    11:00 +42°C° 0 mm 6 mps 711 mmHg 15%
    12:00 +44°C° 0 mm 7 mps 711 mmHg 13%
    13:00 +44°C° 0 mm 6 mps 711 mmHg 15%
    14:00 +42°C° 0 mm 6 mps 710 mmHg 17%
    15:00 +41°C° 0 mm 5 mps 710 mmHg 19%
    16:00 +40°C° 0 mm 4 mps 710 mmHg 24%
    17:00 +37°C° 0 mm 3 mps 709 mmHg 29%
    18:00 +35°C° 0 mm 2 mps 709 mmHg 34%
    19:00 +32°C° 0 mm 2 mps 709 mmHg 39%
    20:00 +30°C° 0 mm 2 mps 709 mmHg 44%
    21:00 +28°C° 0 mm 1 mps 709 mmHg 50%
    22:00 +28°C° 0 mm 1 mps 709 mmHg 45%
    23:00 +28°C° 0 mm 1 mps 709 mmHg 40%

    22 June, Saturday

    Time Temperature Precipitation Wind Pressure Humidity
    00:00 +28°C° 0 mm 2 mps 709 mmHg 36%
    01:00 +27°C° 0 mm 2 mps 709 mmHg 38%
    02:00 +27°C° 0 mm 2 mps 708 mmHg 40%
    03:00 +26°C° 0 mm 2 mps 708 mmHg 43%
    04:00 +26°C° 0 mm 2 mps 709 mmHg 44%
    05:00 +27°C° 0 mm 2 mps 709 mmHg 46%
    06:00 +27°C° 0 mm 2 mps 710 mmHg 47%
    07:00 +30°C° 0 mm 2 mps 710 mmHg 38%
    08:00 +35°C° 0 mm 3 mps 711 mmHg 29%
    09:00 +38°C° 0 mm 4 mps 711 mmHg 21%
    10:00 +41°C° 0 mm 4 mps 711 mmHg 18%
    11:00 +42°C° 0 mm 4 mps 711 mmHg 15%
    12:00 +43°C° 0 mm 4 mps 712 mmHg 13%
    13:00 +42°C° 0 mm 5 mps 711 mmHg 16%
    14:00 +41°C° 0 mm 5 mps 711 mmHg 20%
    15:00 +40°C° 0 mm 5 mps 710 mmHg 23%
    16:00 +38°C° 0 mm 4 mps 710 mmHg 26%
    17:00 +36°C° 0 mm 3 mps 710 mmHg 30%
    18:00 +35°C° 0 mm 3 mps 710 mmHg 33%
    19:00 +34°C° 0 mm 3 mps 710 mmHg 31%
    20:00 +33°C° 0 mm 3 mps 710 mmHg 29%
    21:00 +33°C° 0 mm 3 mps 710 mmHg 28%
    22:00 +33°C° 0 mm 4 mps 710 mmHg 24%
    23:00 +33°C° 0 mm 4 mps 710 mmHg 21%

    23 June, Sunday

    Time Temperature Precipitation Wind Pressure Humidity
    00:00 +33°C° 0 mm 4 mps 709 mmHg 18%
    01:00 +32°C° 0 mm 4 mps 709 mmHg 18%
    02:00 +32°C° 0 mm 5 mps 709 mmHg 19%
    03:00 +32°C° 0 mm 6 mps 709 mmHg 19%
    04:00 +32°C° 0 mm 6 mps 710 mmHg 20%
    05:00 +33°C° 0 mm 6 mps 710 mmHg 20%
    06:00 +33°C° 0 mm 6 mps 711 mmHg 21%
    07:00 +36°C° 0 mm 7 mps 711 mmHg 17%
    08:00 +39°C° 0 mm 8 mps 712 mmHg 14%
    09:00 +43°C° 0 mm 8 mps 713 mmHg 10%
    10:00 +44°C° 0 mm 8 mps 713 mmHg 10%
    11:00 +45°C° 0 mm 7 mps 713 mmHg 9%
    12:00 +45°C° 0 mm 7 mps 713 mmHg 9%
    13:00 +45°C° 0 mm 7 mps 713 mmHg 9%
    14:00 +45°C° 0 mm 6 mps 713 mmHg 9%
    15:00 +45°C° 0 mm 6 mps 712 mmHg 9%
    16:00 +43°C° 0 mm 5 mps 712 mmHg 11%
    17:00 +41°C° 0 mm 4 mps 712 mmHg 12%
    18:00 +40°C° 0 mm 4 mps 712 mmHg 14%
    19:00 +37°C° 0 mm 3 mps 712 mmHg 15%
    20:00 +36°C° 0 mm 2 mps 712 mmHg 15%
    21:00 +34°C° 0 mm 2 mps 712 mmHg 16%
    22:00 +32°C° 0 mm 2 mps 712 mmHg 17%
    23:00 +32°C° 0 mm 2 mps 712 mmHg 17%
    Show more